Regional Weather Roundup
Issued by NWS

Home | Current Version | Previous Version | Text Only | Print | Product List | Glossary Off
Versions: 1 2 3 4 5 6 7 8 9 10 11 12 13 14 15 16 17 18 19 20 21 22 23 24 25 26 27

000
ASUS45 KBOU 190306
RWRCO

WEATHER ROUNDUP FOR COLORADO
NATIONAL WEATHER SERVICE DENVER/BOULDER CO
900 PM MDT FRI APR 18 2014

NOTE: "FAIR" INDICATES FEW OR NO CLOUDS BELOW 12000 FEET WITH NO
SIGNIFICANT WEATHER AND/OR OBSTRUCTIONS TO VISIBILITY.

COZ001>005-013-030-031-190400-
...NORTHWEST COLORADO...

CITY           SKY/WX    TMP DP  RH WIND       PRES   REMARKS
CRAIG          CLOUDY    56  29  35 SW8       29.95S
HAYDEN         CLOUDY    54  27  35 SW8       30.00R
MEEKER         CLOUDY    61  22  22 SW8       29.97R
MOUNT WERNER   CLOUDY    45  10  24 S17G23    30.20R
STEAMBOAT SPGS CLOUDY    57  17  21 CALM      29.99S
WALDEN         CLOUDY    50  23  34 S7        30.05R
$$

COZ006>008-011-190400-
...WEST CENTRAL VALLEYS...

CITY           SKY/WX    TMP DP  RH WIND       PRES   REMARKS
GRAND JUNCTION CLOUDY    64  24  21 N6        29.91R
MONTROSE       CLOUDY    65  27  23 W8        30.00R
EAGLE          MOCLDY    59  27  29 CALM      30.02R
RIFLE          CLOUDY    62  27  26 SW7       29.95R
DELTA          CLOUDY    69  27  20 SW6       29.95R
NUCLA            N/A     63  23  22 S3        30.03R
$$

COZ017>023-064>068-190400-
...SOUTHWEST COLORADO...

CITY           SKY/WX    TMP DP  RH WIND       PRES   REMARKS
DURANGO        CLOUDY    58  28  32 S10       30.08R
CORTEZ         CLEAR     60  30  32 S14G25    30.06R
PAGOSA SPRINGS CLOUDY    59  22  23 SW21G30   30.14R
TELLURIDE      CLOUDY    50  27  40 S5        30.18R
WOLF CREEK PAS CLOUDY    34  23  64 SW18G24   30.30R WCI  23
$$

COZ009-010-012-014-032>034-037-058>063-190400-
...CENTRAL COLORADO...

CITY           SKY/WX    TMP DP  RH WIND       PRES   REMARKS
ASPEN          CLOUDY    49  28  44 SW12      30.08R
BUENA VISTA    PTCLDY    47  28  47 W6        30.09R
COPPER MTN     MOCLDY    37  18  44 SW14G21   30.28S
BERTHOUD PASS  FAIR      32  23  69 W15       30.31R WCI  22
COTTONWOOD PAS PTCLDY    48  19  32 NW3       30.19R
GUNNISON       MOCLDY    54  21  28 SW6       30.12R
KREMMLING      CLOUDY    50  25  37 CALM      30.05R
LEADVILLE      MOCLDY    37  22  54 SE6       30.18R
MONARCH PASS   PTCLDY    36  21  55 W16G28    30.39R
SALIDA         PTCLDY    55  23  29 W12       30.14R
SUNLIGHT       CLOUDY    41  27  56 SW3       30.25R
WILKERSON PASS CLOUDY    39  21  48 W8        30.28S
$$

COZ069>075-190400-
...SAN LUIS VALLEY/SANGRE DE CRISTO MOUNTAINS...

CITY           SKY/WX    TMP DP  RH WIND       PRES   REMARKS
ALAMOSA        PTCLDY    48  29  47 SW6       30.08R
LA VETA PASS   MOCLDY    45  19  36 SW14G22   30.21R
SAGUACHE       PTCLDY    52  23  32 NW8       30.10R
$$

COZ035-036-038>040-190400-
...NORTHERN COLORADO FRONT RANGE...

CITY           SKY/WX    TMP DP  RH WIND       PRES   REMARKS
DENVER INTL AP CLOUDY    71  24  17 SE6       29.89R
DMNS CITY PARK   N/A     66  31  27 NW6G16    29.90R
AURORA         MOCLDY    66  27  22 CALM      29.92R
FRONT RANGE AP NOT AVBL
ERIE MUNI ARPT CLOUDY    60  32  34 S3        29.88R
BOULDER MUN AP CLOUDY    66  27  22 SW5       29.88R
CENTENNIAL     CLOUDY    63  30  28 SW5       29.93R
BROOMFIELD     MOCLDY    63  30  29 SW7       29.92R
FORT COLLINS   CLOUDY    64  32  29 S7        29.87R
LONGMONT       CLOUDY    61  35  37 SW5       29.89R
$$

COZ041-046-047-076>085-087-088-190400-
...PIKES PEAK/PALMER DIVIDE AND SOUTHERN FOOTHILLS...

CITY           SKY/WX    TMP DP  RH WIND       PRES   REMARKS
COLO. SPRINGS  CLOUDY    64  27  24 NW5       29.96R
A. F. ACADEMY  CLOUDY    63  25  23 W7        29.99R
ELLICOTT       NOT AVBL
FALCON         CLOUDY    58  26  29 W7        30.01R
FORT CARSON    CLOUDY    62  28  26 W8        29.93R
LIMON          CLOUDY    55  29  36 SE7       29.92R
MONUMENT HILL  CLOUDY    55  28  35 SW8       30.00R
TRINIDAD       CLOUDY    63  35  35 S21       29.97R
$$

COZ042>045-048>051-090-091-190400-
...NORTHEAST COLORADO...

CITY           SKY/WX    TMP DP  RH WIND       PRES   REMARKS
GREELEY ARPT   CLOUDY    61  32  33 SE7       29.85R
AKRON          CLOUDY    61  34  36 SE16      29.88R
BURLINGTON     PTCLDY    60  40  47 SE20      29.92R
WRAY           PTCLDY    65  40  41 SE16G22   29.88R
STERLING       CLOUDY    64  39  39 W10       29.86R
HOLYOKE        PTCLDY    63  41  45 S17       29.87R
FORT MORGAN    CLOUDY    67  32  27 NE8       29.88S
$$

COZ086-089-092>099-190400-
...SOUTHEAST COLORADO...

CITY           SKY/WX    TMP DP  RH WIND       PRES   REMARKS
PUEBLO         CLOUDY    64  37  36 NW6       29.86R
LA JUNTA       CLOUDY    71  37  28 S14       29.87R
LAMAR          MOCLDY    68  37  32 S22G29    29.86R
SPRINGFIELD      N/A     62  42  47 S20       29.97R
$$



USA.gov is the U.S. government's official web portal to all federal, state and local government web resources and services.